SCP
0 0 0 0 0 0 0 0 0 0 0 0 0 0 0 0 0 0 0 0 0 0 0 0 0 0 0 0 0 0 0 0 0 0 0 0 0 0 0 0 0 0 0
0 0 0 0 0 0 0 0 0 0 0 0 0 0 0 0 0 0 0 0 0 0 0 0 0 0 0 0 0 0 0 0 0 0 0 0 0 0 0 0 0 0 0
0 0 0 0 0 0 0 0 0 0 0 0 0 0 0 0 0 0 0 0 0 0 0 0 0 0 0 0 0 0 0 0 0 0 0 0 0 0 0 0 0 0 0
0 0 0 0 0 0 0 0 0 0 0 0 0 0 0 0 0 0 0 0 0 0 0 0 0 0 0 0 0 0 0 0 0 0 0 0 0 0 0 0 0 0 0
0 0 0 0 0 0 0 0 0 0 0 0 0 0 0 0 0 0 0 0 0 0 0 0 0 0 0 0 0 0 0 0 0 0 0 0 0 0 0 0 0 0 0
0 0 0 0 0 0 0 0 0 0 0 0 0 0 0 0 0 0 0 0 0 0 0 0 0 0 0 0 0 0 0 0 0 0 0 0 0 0 0 0 0 0 0
0 0 0 0 0 0 0 0 0 0 0 0 0 0 0 0 0 0 0 0 0 0 0 0 0 0 0 0 0 0 0 0 0 0 0 0 0 0 0 0 0 0 0
0 0 0 0 0 0 0 0 0 0 0 0 0 0 0 0 0 0 0 0 0 0 0 0 0 0 0 0 0 0 0 0 0 0 0 0 0 0 0 0 1 1 1
0 0 0 0 0 0 0 0 0 0 0 0 0 0 0 0 0 0 0 0 0 0 0 0 0 0 0 0 0 0 0 0 0 0 0 0 1 1 1 1 1 1 1
0 0 0 0 0 0 0 0 0 0 0 0 0 0 0 0 0 0 0 0 0 0 0 0 0 0 0 0 0 0 0 0 0 0 1 1 1 1 1 1 1 1 1
0 0 0 0 0 0 0 0 0 0 0 0 0 0 0 0 0 0 0 0 0 0 0 0 0 0 0 0 0 0 0 0 0 0 1 1 1 1 1 1 1 1 1
0 0 0 0 0 0 0 0 0 0 0 0 0 0 0 0 0 0 0 0 0 0 0 0 0 0 0 0 0 0 0 0 0 0 1 1 1 1 1 1 1 1 1
0 0 0 0 0 0 0 0 0 0 0 0 0 0 0 0 0 0 0 0 0 0 0 0 0 0 0 0 0 0 0 0 0 0 1 1 1 1 1 2 2 1 1
0 0 0 0 0 0 0 0 0 0 0 0 0 0 0 0 0 0 0 0 0 0 0 0 0 0 0 0 0 0 0 0 0 0 0 1 1 1 1 1 2 1 1
0 0 0 0 0 0 0 0 0 0 0 0 0 0 0 0 0 0 0 0 0 0 0 0 0 0 0 0 0 0 0 0 0 0 0 0 1 1 1 1 1 1 1
0 0 0 0 0 0 0 0 0 0 0 0 0 0 0 0 0 0 0 0 0 0 0 0 0 0 0 0 0 0 0 0 0 0 0 0 0 0 0 0 1 1 1
0 0 0 0 0 0 0 0 0 0 0 0 0 0 0 0 0 0 0 0 0 0 0 0 0 0 0 0 0 0 0 0 0 0 0 0 0 0 0 0 0 0 0
0 0 0 0 0 0 0 0 0 0 0 0 0 0 0 0 0 0 0 0 0 0 0 0 0 0 0 0 0 0 0 0 0 0 0 0 0 0 0 0 0 0 0
0 0 0 0 0 0 0 0 0 0 0 0 0 0 0 0 0 0 0 0 0 0 0 0 0 0 0 0 0 0 0 0 0 0 0 0 0 0 0 0 0 0 0
0 0 0 0 0 0 0 0 0 0 0 0 0 0 0 0 0 0 0 0 0 0 0 0 0 0 0 0 0 0 0 0 0 0 0 0 0 0 0 0 0 0 0
0 0 0 0 0 0 0 0 0 0 0 0 0 0 0 0 0 0 0 0 0 0 0 0 0 0 0 0 0 0 0 0 0 0 0 0 0 0 0 0 0 0 0
0 0 0 0 0 0 0 0 0 0 0 0 0 0 0 0 0 0 0 0 0 0 0 0 0 0 0 0 0 0 0 0 0 0 0 0 0 0 0 0 0 0 0
0 0 0 0 0 0 0 0 0 0 0 0 0 0 0 0 0 0 0 0 0 0 0 0 0 0 0 0 0 0 0 0 0 0 0 0 0 0 0 0 0 0 0
0 0 0 0 0 0 0 0 0 0 0 0 0 0 0 0 0 0 0 0 0 0 0 0 0 0 0 0 0 0 0 0 0 0 0 0 0 0 0 0 0 0 0
0 0 0 0 0 0 0 0 0 0 0 0 0 0 0 0 0 0 0 0 0 0 0 0 0 0 0 0 0 0 0 0 0 0 0 0 0 0 0 0 0 0 0
0 0 0 0 0 0 0 0 0 0 0 0 0 0 0 0 0 0 0 0 0 0 0 0 0 0 0 0 0 0 0 0 0 0 0 0 0 0 0 0 0 0 0
Wind_Speed
4 4 3 3 4 4 5 5 6 7 7 7 7 8 9 9 9 8 7 17 20 22 24 27 27 26 27 27 26 26 26 26 26 25 25 25 25 25 24 24 24 24 24
5 4 4 4 5 5 6 6 7 7 7 6 8 9 10 9 9 10 9 12 20 23 24 26 28 29 29 29 29 29 28 29 28 28 28 27 27 26 26 26 26 26 25
5 5 4 5 6 5 6 6 6 6 7 7 10 10 10 10 11 11 11 9 10 18 24 27 28 30 30 31 31 31 30 29 29 30 30 29 29 29 28 28 28 27 27
6 5 5 7 6 4 5 5 6 6 8 8 9 9 9 9 11 12 11 11 9 10 16 26 28 30 31 32 33 33 33 29 27 27 29 30 30 31 31 30 30 29 29
5 5 6 7 5 4 5 6 6 6 8 9 9 9 9 9 11 12 13 13 13 13 11 18 25 28 30 33 33 34 34 33 28 27 27 29 30 32 32 32 32 31 31
5 5 5 7 6 5 6 6 9 8 9 10 10 11 10 10 9 11 13 13 13 15 15 15 14 16 26 31 32 34 34 35 33 31 30 29 29 31 33 33 33 33 33
3 2 3 5 5 5 7 7 7 9 9 7 7 9 10 11 12 11 12 12 14 15 14 15 13 12 11 24 30 32 33 33 34 33 33 32 32 33 34 34 34 34 34
8 7 6 5 5 5 6 6 6 6 6 5 4 6 7 6 8 10 10 11 13 12 13 16 15 15 13 11 16 27 30 31 32 33 33 33 34 34 35 35 35 35 34
9 8 8 6 6 5 5 6 6 7 7 5 5 7 8 8 5 5 8 10 12 11 12 12 15 16 16 13 13 20 27 31 32 33 33 33 33 33 34 35 35 35 35
8 9 8 8 7 6 6 7 7 6 7 7 6 5 8 9 11 9 5 6 9 10 11 10 11 13 15 13 15 20 25 29 33 33 33 33 33 33 34 34 34 35 34
7 9 8 8 7 6 7 7 7 7 5 5 6 7 7 8 8 10 13 8 6 6 8 10 10 11 13 14 13 18 25 30 34 34 34 33 33 33 34 34 34 34 33
5 9 8 7 7 6 7 7 7 7 6 6 6 5 6 6 8 8 13 14 12 8 8 8 8 9 10 11 15 21 25 29 33 35 35 35 34 33 34 34 34 33 32
5 8 8 8 7 8 7 7 7 8 7 8 7 6 6 6 6 8 11 13 15 11 9 8 7 8 8 7 9 16 20 26 31 34 36 36 35 32 32 33 34 33 32
5 8 8 8 9 9 9 8 7 8 7 7 9 9 7 6 6 7 8 12 15 13 10 9 6 6 6 7 11 17 14 20 24 29 33 35 34 31 30 30 32 32 31
6 7 8 8 8 9 9 9 7 8 8 7 8 8 7 6 6 6 6 7 10 16 17 14 8 7 7 8 13 12 12 17 22 25 28 29 31 31 31 30 29 29 28
6 7 7 8 8 8 9 9 8 8 8 8 7 9 8 7 7 6 6 6 7 10 15 15 13 11 10 13 17 15 15 22 23 25 26 25 27 29 31 31 31 30 29
7 7 7 8 9 9 9 10 9 10 10 10 8 9 10 10 8 7 7 7 7 7 13 16 13 12 13 14 14 13 14 14 14 21 24 25 25 26 28 29 30 31 30
6 7 7 8 8 9 9 10 10 10 11 10 9 9 10 10 10 9 8 9 9 8 9 16 17 14 14 13 14 15 14 14 13 19 24 25 25 25 26 27 28 29 29
7 7 8 8 9 10 10 9 9 10 10 9 9 10 11 12 12 10 11 11 9 9 7 12 17 14 13 10 13 14 14 12 14 15 20 22 23 24 24 25 25 26 26
8 9 9 9 10 11 10 10 12 12 10 9 9 9 11 12 14 14 12 9 10 11 10 12 14 14 13 10 10 12 13 9 11 11 17 19 21 23 25 25 24 23 23
9 8 9 10 10 10 10 15 14 14 13 12 11 10 11 18 22 19 17 15 14 13 13 14 15 14 14 11 11 11 15 13 12 9 11 12 11 11 11 15 18 20 22
8 9 10 11 12 12 22 26 22 14 13 13 15 14 14 15 19 27 29 29 26 20 18 17 16 17 18 16 14 14 14 15 15 6 9 10 7 10 9 8 15 19 21
9 10 10 11 12 15 25 26 27 18 12 13 14 14 15 16 22 15 22 27 25 29 29 22 20 20 20 19 19 19 17 18 18 9 10 15 9 13 11 12 20 21 21
9 9 11 11 12 15 25 27 28 15 12 13 13 14 15 15 16 22 20 20 19 19 22 19 17 19 20 19 19 20 21 20 19 14 12 16 11 12 10 8 15 20 21
10 9 11 11 12 15 23 26 27 12 12 13 13 14 17 15 25 32 24 22 22 19 23 29 31 30 32 32 27 17 16 16 16 12 9 11 10 8 5 5 8 16 16
10 11 12 10 11 13 21 26 27 12 13 13 13 12 19 24 30 34 23 20 21 20 21 22 22 22 20 20 26 18 15 15 14 11 7 7 7 4 4 2 3 3 6
Wind_Direction
226 226 229 227 231 231 236 243 246 250 251 252 249 246 246 242 244 242 252 257 261 264 265 261 261 261 260 256 250 247 248 249 249 248 248 247 247 246 246 245 245 244 244
228 232 239 238 237 233 236 239 241 247 252 251 254 248 248 245 245 241 239 248 253 257 260 261 260 260 260 261 259 254 249 247 247 247 247 247 247 247 247 247 247 247 247
230 236 246 248 244 235 237 243 247 248 257 253 256 253 250 248 247 245 242 241 246 250 252 256 259 259 259 259 260 260 258 254 250 249 248 247 247 247 246 246 247 247 247
236 240 251 259 254 239 238 245 250 251 256 256 259 258 253 252 250 249 247 246 243 245 249 252 253 255 256 257 258 259 259 258 254 251 250 249 249 248 248 247 247 247 247
241 241 257 268 270 257 251 255 258 245 263 266 264 264 257 252 253 252 249 247 244 244 243 249 249 250 252 255 256 257 258 259 257 255 252 251 250 250 250 250 249 248 248
250 244 259 271 277 273 270 261 265 263 264 271 277 276 269 259 253 251 250 249 246 243 242 243 246 248 248 252 255 257 258 259 258 257 255 254 252 251 251 252 251 250 249
335 312 301 301 300 287 286 283 278 277 275 272 275 277 268 257 254 253 250 249 249 246 243 242 242 241 246 247 249 252 254 256 257 257 255 254 253 252 252 252 252 251 251
32 31 18 3 350 336 328 320 308 293 285 268 259 279 283 266 244 245 247 247 249 247 245 243 241 239 237 238 239 242 245 249 251 253 253 253 252 251 250 250 250 250 250
34 29 23 15 5 2 349 338 335 319 309 299 256 267 288 289 283 248 243 246 246 245 244 243 242 241 240 239 241 241 241 244 247 248 249 250 251 251 251 249 249 249 248
28 22 17 11 5 0 354 347 348 334 326 322 315 283 283 296 298 298 255 252 259 257 256 254 250 246 243 243 242 239 240 242 246 249 249 249 249 249 249 249 249 249 248
20 16 11 6 0 354 346 342 340 336 329 322 320 315 313 311 301 305 304 301 286 272 270 265 262 257 251 247 247 245 243 245 250 253 253 252 250 248 247 247 248 248 248
7 11 5 0 353 348 341 337 330 327 321 319 317 314 315 313 318 312 306 307 301 295 289 283 276 269 262 256 252 250 247 248 252 255 257 256 254 251 249 248 248 248 248
358 359 358 353 350 343 337 335 328 324 318 322 316 312 307 301 305 308 307 307 304 299 286 277 277 284 285 280 275 268 260 255 255 257 260 261 260 257 253 251 250 250 248
348 353 351 348 344 341 341 336 327 322 321 318 318 313 307 304 304 306 306 311 309 304 297 286 281 284 295 298 293 290 283 271 262 261 261 262 262 261 258 254 251 250 249
352 351 345 342 338 336 336 333 326 321 322 319 313 307 306 304 303 301 303 308 308 309 304 303 299 294 296 296 293 294 289 285 278 271 266 261 258 257 257 257 255 253 249
344 339 339 336 333 331 332 329 324 321 326 321 316 317 316 314 310 306 305 301 294 296 297 299 302 304 304 302 299 297 293 290 285 280 276 268 260 255 254 253 253 253 252
337 337 335 333 332 332 330 326 322 326 324 319 320 324 321 318 314 310 301 296 289 286 291 296 300 305 306 304 302 297 294 290 285 281 279 275 269 262 256 253 251 250 250
334 333 329 328 329 330 324 319 318 324 317 316 318 318 316 314 305 298 295 291 287 280 285 299 301 301 297 297 297 296 296 292 288 286 282 279 275 271 265 259 255 251 249
334 335 334 332 330 328 322 315 314 314 311 309 311 312 312 309 304 300 296 292 288 295 290 290 292 294 293 293 296 294 290 287 287 288 289 287 282 278 273 267 261 255 250
336 336 332 328 326 324 318 320 321 316 312 309 305 305 307 306 306 307 304 300 306 304 294 288 289 291 290 289 287 292 293 287 287 290 290 287 284 278 272 269 265 259 253
335 326 326 327 326 324 326 327 323 321 318 315 313 307 305 310 311 312 313 314 310 303 302 299 295 294 292 293 289 288 287 287 279 272 280 280 278 274 271 269 265 260 254
328 329 330 328 327 328 325 327 327 319 316 317 316 313 309 308 310 316 313 310 309 307 304 299 295 292 291 289 287 283 283 286 285 248 259 271 270 277 272 262 261 257 255
328 328 325 322 319 317 323 326 324 322 314 311 308 309 311 312 315 305 305 309 307 303 299 295 291 288 288 286 284 282 278 277 278 273 271 274 263 266 264 261 261 255 253
324 319 316 313 312 315 323 324 323 322 309 303 303 304 305 306 308 312 310 308 304 301 297 295 288 286 285 284 279 280 281 279 275 265 249 263 259 259 260 256 259 256 254
318 312 310 310 311 314 320 323 325 315 308 306 305 307 310 309 311 317 317 311 308 305 306 303 300 298 296 296 295 291 284 278 277 269 241 250 255 252 253 257 258 253 242
307 309 309 307 305 308 314 324 325 315 314 312 310 308 312 315 316 319 318 314 312 309 308 309 306 303 299 295 298 294 293 289 286 280 250 239 246 225 240 280 294 249 201